owner,sensor,date,latitude,longitude,vertical_datum,wind_speed,wind_to_direction,wind_speed_of_gust,qcFlag 
FIT,ioos:station:wmo:SIPF1:1,2017-11-01T00:00:00Z,27.8620,-80.4450,1.0,7.5,4.0,99.0,'11111222,11111222,11144222' 
FIT,ioos:station:wmo:SIPF1:1,2017-11-01T00:15:00Z,27.8620,-80.4450,1.0,7.7,4.0,99.0,'11111222,11111222,11144222' 
FIT,ioos:station:wmo:SIPF1:1,2017-11-01T00:30:00Z,27.8620,-80.4450,1.0,7.7,2.0,99.0,'11111222,11111222,11144222' 
FIT,ioos:station:wmo:SIPF1:1,2017-11-01T00:45:00Z,27.8620,-80.4450,1.0,7.1,4.0,99.0,'11111222,11111222,11144222' 
FIT,ioos:station:wmo:SIPF1:1,2017-11-01T01:00:00Z,27.8620,-80.4450,1.0,5.3,48.0,99.0,'11111222,11111222,11144222' 
FIT,ioos:station:wmo:SIPF1:1,2017-11-01T01:15:00Z,27.8620,-80.4450,1.0,5.1,72.0,99.0,'11111222,11111222,11144222' 
FIT,ioos:station:wmo:SIPF1:1,2017-11-01T01:30:00Z,27.8620,-80.4450,1.0,5.6,75.0,99.0,'11111222,11111222,11144222' 
FIT,ioos:station:wmo:SIPF1:1,2017-11-01T01:45:00Z,27.8620,-80.4450,1.0,5.1,69.0,99.0,'11111222,11111222,11144222' 
FIT,ioos:station:wmo:SIPF1:1,2017-11-01T02:00:00Z,27.8620,-80.4450,1.0,5.1,78.0,99.0,'11111222,11111222,11144222' 
FIT,ioos:station:wmo:SIPF1:1,2017-11-01T02:15:00Z,27.8620,-80.4450,1.0,5.3,67.0,99.0,'11111222,11111222,11144222' 
FIT,ioos:station:wmo:SIPF1:1,2017-11-01T02:30:00Z,27.8620,-80.4450,1.0,5.3,76.0,99.0,'11111222,11111222,11144222' 
FIT,ioos:station:wmo:SIPF1:1,2017-11-01T02:45:00Z,27.8620,-80.4450,1.0,4.8,77.0,99.0,'11111222,11111222,11144222' 
FIT,ioos:station:wmo:SIPF1:1,2017-11-01T03:00:00Z,27.8620,-80.4450,1.0,4.7,76.0,99.0,'11111222,11111222,11144222' 
FIT,ioos:station:wmo:SIPF1:1,2017-11-01T03:15:00Z,27.8620,-80.4450,1.0,4.0,76.0,99.0,'11111222,11111222,11144222' 
FIT,ioos:station:wmo:SIPF1:1,2017-11-01T03:30:00Z,27.8620,-80.4450,1.0,3.0,78.0,99.0,'11111222,11111222,11144222' 
FIT,ioos:station:wmo:SIPF1:1,2017-11-01T03:45:00Z,27.8620,-80.4450,1.0,3.2,50.0,99.0,'11111222,11111222,11144222' 
FIT,ioos:station:wmo:SIPF1:1,2017-11-01T04:00:00Z,27.8620,-80.4450,1.0,3.0,74.0,99.0,'11111222,11111222,11144222' 
FIT,ioos:station:wmo:SIPF1:1,2017-11-01T04:15:00Z,27.8620,-80.4450,1.0,3.1,68.0,99.0,'11111222,11111222,11144222' 
FIT,ioos:station:wmo:SIPF1:1,2017-11-01T04:30:00Z,27.8620,-80.4450,1.0,2.9,71.0,99.0,'11111222,11111222,11144222' 
FIT,ioos:station:wmo:SIPF1:1,2017-11-01T04:45:00Z,27.8620,-80.4450,1.0,3.3,70.0,99.0,'11111222,11111222,11144222' 
FIT,ioos:station:wmo:SIPF1:1,2017-11-01T05:00:00Z,27.8620,-80.4450,1.0,2.7,70.0,99.0,'11111222,11111222,11144222' 
FIT,ioos:station:wmo:SIPF1:1,2017-11-01T05:15:00Z,27.8620,-80.4450,1.0,2.7,60.0,99.0,'11111222,11111222,11144222' 
FIT,ioos:station:wmo:SIPF1:1,2017-11-01T05:30:00Z,27.8620,-80.4450,1.0,2.6,53.0,99.0,'11111222,11111222,11144222' 
FIT,ioos:station:wmo:SIPF1:1,2017-11-01T05:45:00Z,27.8620,-80.4450,1.0,2.3,38.0,99.0,'11111222,11111222,11144222' 
FIT,ioos:station:wmo:SIPF1:1,2017-11-01T06:00:00Z,27.8620,-80.4450,1.0,1.1,300.0,99.0,'11111222,11111222,11144222' 
FIT,ioos:station:wmo:SIPF1:1,2017-11-01T06:15:00Z,27.8620,-80.4450,1.0,1.5,299.0,99.0,'11111222,11111222,11144222' 
FIT,ioos:station:wmo:SIPF1:1,2017-11-01T06:30:00Z,27.8620,-80.4450,1.0,2.3,309.0,99.0,'11111222,11111222,11144222' 
FIT,ioos:station:wmo:SIPF1:1,2017-11-01T06:45:00Z,27.8620,-80.4450,1.0,2.5,287.0,99.0,'11111222,11111222,11144222' 
FIT,ioos:station:wmo:SIPF1:1,2017-11-01T07:00:00Z,27.8620,-80.4450,1.0,2.0,271.0,99.0,'11111222,11111222,11144222' 
FIT,ioos:station:wmo:SIPF1:1,2017-11-01T07:15:00Z,27.8620,-80.4450,1.0,1.8,269.0,99.0,'11111222,11111222,11144222' 
FIT,ioos:station:wmo:SIPF1:1,2017-11-01T07:30:00Z,27.8620,-80.4450,1.0,2.6,298.0,99.0,'11111222,11111222,11144222' 
FIT,ioos:station:wmo:SIPF1:1,2017-11-01T07:45:00Z,27.8620,-80.4450,1.0,3.2,293.0,99.0,'11111222,11111222,11144222' 
FIT,ioos:station:wmo:SIPF1:1,2017-11-01T08:00:00Z,27.8620,-80.4450,1.0,3.5,296.0,99.0,'11111222,11111222,11144222' 
FIT,ioos:station:wmo:SIPF1:1,2017-11-01T08:15:00Z,27.8620,-80.4450,1.0,3.8,297.0,99.0,'11111222,11111222,11144222' 
FIT,ioos:station:wmo:SIPF1:1,2017-11-01T08:30:00Z,27.8620,-80.4450,1.0,3.8,305.0,99.0,'11111222,11111222,11144222' 
FIT,ioos:station:wmo:SIPF1:1,2017-11-01T08:45:00Z,27.8620,-80.4450,1.0,3.8,309.0,99.0,'11111222,11111222,11144222' 
FIT,ioos:station:wmo:SIPF1:1,2017-11-01T09:00:00Z,27.8620,-80.4450,1.0,3.4,312.0,99.0,'11111222,11111222,11144222' 
FIT,ioos:station:wmo:SIPF1:1,2017-11-01T09:15:00Z,27.8620,-80.4450,1.0,3.1,309.0,99.0,'11111222,11111222,11144222' 
FIT,ioos:station:wmo:SIPF1:1,2017-11-01T09:30:00Z,27.8620,-80.4450,1.0,3.0,308.0,99.0,'11111222,11111222,11144222' 
FIT,ioos:station:wmo:SIPF1:1,2017-11-01T09:45:00Z,27.8620,-80.4450,1.0,3.1,311.0,99.0,'11111222,11111222,11144222' 
FIT,ioos:station:wmo:SIPF1:1,2017-11-01T10:00:00Z,27.8620,-80.4450,1.0,3.0,315.0,99.0,'11111222,11111222,11144222' 
FIT,ioos:station:wmo:SIPF1:1,2017-11-01T10:15:00Z,27.8620,-80.4450,1.0,3.0,317.0,99.0,'11111222,11111222,11144222' 
FIT,ioos:station:wmo:SIPF1:1,2017-11-01T10:30:00Z,27.8620,-80.4450,1.0,3.1,317.0,99.0,'11111222,11111222,11144222' 
FIT,ioos:station:wmo:SIPF1:1,2017-11-01T10:45:00Z,27.8620,-80.4450,1.0,3.3,318.0,99.0,'11111222,11111222,11144222' 
FIT,ioos:station:wmo:SIPF1:1,2017-11-01T11:00:00Z,27.8620,-80.4450,1.0,2.8,318.0,99.0,'11111222,11111222,11144222' 
FIT,ioos:station:wmo:SIPF1:1,2017-11-01T11:15:00Z,27.8620,-80.4450,1.0,2.4,316.0,99.0,'11111222,11111222,11144222' 
FIT,ioos:station:wmo:SIPF1:1,2017-11-01T11:30:00Z,27.8620,-80.4450,1.0,2.5,315.0,99.0,'11111222,11111222,11144222' 
FIT,ioos:station:wmo:SIPF1:1,2017-11-01T11:45:00Z,27.8620,-80.4450,1.0,1.9,304.0,99.0,'11111222,11111222,11144222' 
FIT,ioos:station:wmo:SIPF1:1,2017-11-01T12:00:00Z,27.8620,-80.4450,1.0,2.2,311.0,99.0,'11111222,11111222,11144222' 
FIT,ioos:station:wmo:SIPF1:1,2017-11-01T12:15:00Z,27.8620,-80.4450,1.0,2.6,314.0,99.0,'11111222,11111222,11144222' 
FIT,ioos:station:wmo:SIPF1:1,2017-11-01T12:30:00Z,27.8620,-80.4450,1.0,2.7,313.0,99.0,'11111222,11111222,11144222' 
FIT,ioos:station:wmo:SIPF1:1,2017-11-01T12:45:00Z,27.8620,-80.4450,1.0,2.4,313.0,99.0,'11111222,11111222,11144222' 
FIT,ioos:station:wmo:SIPF1:1,2017-11-01T13:00:00Z,27.8620,-80.4450,1.0,2.5,319.0,99.0,'11111222,11111222,11144222' 
FIT,ioos:station:wmo:SIPF1:1,2017-11-01T13:15:00Z,27.8620,-80.4450,1.0,2.3,321.0,99.0,'11111222,11111222,11144222' 
FIT,ioos:station:wmo:SIPF1:1,2017-11-01T13:30:00Z,27.8620,-80.4450,1.0,2.3,326.0,99.0,'11111222,11111222,11144222' 
FIT,ioos:station:wmo:SIPF1:1,2017-11-01T13:45:00Z,27.8620,-80.4450,1.0,1.8,324.0,99.0,'11111222,11111222,11144222' 
FIT,ioos:station:wmo:SIPF1:1,2017-11-01T14:00:00Z,27.8620,-80.4450,1.0,1.2,310.0,99.0,'11111222,11111222,11144222' 
FIT,ioos:station:wmo:SIPF1:1,2017-11-01T14:15:00Z,27.8620,-80.4450,1.0,0.9,286.0,99.0,'11111222,11111222,11144222' 
FIT,ioos:station:wmo:SIPF1:1,2017-11-01T14:30:00Z,27.8620,-80.4450,1.0,1.1,263.0,99.0,'11111222,11111222,11144222' 
FIT,ioos:station:wmo:SIPF1:1,2017-11-01T14:45:00Z,27.8620,-80.4450,1.0,1.1,276.0,99.0,'11111222,11111222,11144222' 
FIT,ioos:station:wmo:SIPF1:1,2017-11-01T15:00:00Z,27.8620,-80.4450,1.0,1.6,325.0,99.0,'11111222,11111222,11144222' 
FIT,ioos:station:wmo:SIPF1:1,2017-11-01T15:15:00Z,27.8620,-80.4450,1.0,0.9,321.0,99.0,'11111222,11111222,11144222' 
FIT,ioos:station:wmo:SIPF1:1,2017-11-01T15:30:00Z,27.8620,-80.4450,1.0,0.6,325.0,99.0,'11111222,11111222,11144222' 
FIT,ioos:station:wmo:SIPF1:1,2017-11-01T15:45:00Z,27.8620,-80.4450,1.0,0.4,340.0,99.0,'11111222,11111222,11144222' 
FIT,ioos:station:wmo:SIPF1:1,2017-11-01T16:00:00Z,27.8620,-80.4450,1.0,0.8,344.0,99.0,'11111222,11111222,11144222' 
FIT,ioos:station:wmo:SIPF1:1,2017-11-01T16:15:00Z,27.8620,-80.4450,1.0,0.5,21.0,99.0,'11111222,11111222,11144222' 
FIT,ioos:station:wmo:SIPF1:1,2017-11-01T16:30:00Z,27.8620,-80.4450,1.0,0.6,37.0,99.0,'11111222,11111222,11144222' 
FIT,ioos:station:wmo:SIPF1:1,2017-11-01T16:45:00Z,27.8620,-80.4450,1.0,0.5,25.0,99.0,'11111222,11111222,11144222' 
FIT,ioos:station:wmo:SIPF1:1,2017-11-01T17:00:00Z,27.8620,-80.4450,1.0,0.8,12.0,99.0,'11111222,11111222,11144222' 
FIT,ioos:station:wmo:SIPF1:1,2017-11-01T17:15:00Z,27.8620,-80.4450,1.0,0.6,24.0,99.0,'11111222,11111222,11144222' 
FIT,ioos:station:wmo:SIPF1:1,2017-11-01T17:30:00Z,27.8620,-80.4450,1.0,0.7,22.0,99.0,'11111222,11111222,11144222' 
FIT,ioos:station:wmo:SIPF1:1,2017-11-01T17:45:00Z,27.8620,-80.4450,1.0,0.5,39.0,99.0,'11111222,11111222,11144222' 
FIT,ioos:station:wmo:SIPF1:1,2017-11-01T18:00:00Z,27.8620,-80.4450,1.0,0.5,49.0,99.0,'11111222,11111222,11144222' 
FIT,ioos:station:wmo:SIPF1:1,2017-11-01T18:15:00Z,27.8620,-80.4450,1.0,0.6,37.0,99.0,'11111222,11111222,11144222' 
FIT,ioos:station:wmo:SIPF1:1,2017-11-01T18:30:00Z,27.8620,-80.4450,1.0,0.5,41.0,99.0,'11111222,11111222,11144222' 
FIT,ioos:station:wmo:SIPF1:1,2017-11-01T18:45:00Z,27.8620,-80.4450,1.0,0.1,36.0,99.0,'11111222,11111222,11144222' 
FIT,ioos:station:wmo:SIPF1:1,2017-11-01T19:00:00Z,27.8620,-80.4450,1.0,0.3,74.0,99.0,'11111222,11111222,11144222' 
FIT,ioos:station:wmo:SIPF1:1,2017-11-01T19:15:00Z,27.8620,-80.4450,1.0,0.4,54.0,99.0,'11111222,11111222,11144222' 
FIT,ioos:station:wmo:SIPF1:1,2017-11-01T19:30:00Z,27.8620,-80.4450,1.0,0.1,40.0,99.0,'11111222,11111222,11144222' 
FIT,ioos:station:wmo:SIPF1:1,2017-11-01T19:45:00Z,27.8620,-80.4450,1.0,1.2,98.0,99.0,'11111222,11111222,11144222' 
FIT,ioos:station:wmo:SIPF1:1,2017-11-01T20:00:00Z,27.8620,-80.4450,1.0,2.4,101.0,99.0,'11111222,11111222,11144222' 
FIT,ioos:station:wmo:SIPF1:1,2017-11-01T20:15:00Z,27.8620,-80.4450,1.0,2.2,99.0,99.0,'11111222,11111222,11144222' 
FIT,ioos:station:wmo:SIPF1:1,2017-11-01T20:30:00Z,27.8620,-80.4450,1.0,3.1,98.0,99.0,'11111222,11111222,11144222' 
FIT,ioos:station:wmo:SIPF1:1,2017-11-01T20:45:00Z,27.8620,-80.4450,1.0,2.5,99.0,99.0,'11111222,11111222,11144222' 
FIT,ioos:station:wmo:SIPF1:1,2017-11-01T21:00:00Z,27.8620,-80.4450,1.0,2.7,91.0,99.0,'11111222,11111222,11144222' 
FIT,ioos:station:wmo:SIPF1:1,2017-11-01T21:15:00Z,27.8620,-80.4450,1.0,2.8,97.0,99.0,'11111222,11111222,11144222' 
FIT,ioos:station:wmo:SIPF1:1,2017-11-01T21:30:00Z,27.8620,-80.4450,1.0,3.2,105.0,99.0,'11111222,11111222,11144222' 
FIT,ioos:station:wmo:SIPF1:1,2017-11-01T21:45:00Z,27.8620,-80.4450,1.0,3.0,110.0,99.0,'11111222,11111222,11144222' 
FIT,ioos:station:wmo:SIPF1:1,2017-11-01T22:00:00Z,27.8620,-80.4450,1.0,2.8,103.0,99.0,'11111222,11111222,11144222' 
FIT,ioos:station:wmo:SIPF1:1,2017-11-01T22:15:00Z,27.8620,-80.4450,1.0,2.9,104.0,99.0,'11111222,11111222,11144222' 
FIT,ioos:station:wmo:SIPF1:1,2017-11-01T22:30:00Z,27.8620,-80.4450,1.0,3.3,97.0,99.0,'11111222,11111222,11144222' 
FIT,ioos:station:wmo:SIPF1:1,2017-11-01T22:45:00Z,27.8620,-80.4450,1.0,3.3,93.0,99.0,'11111222,11111222,11144222' 
FIT,ioos:station:wmo:SIPF1:1,2017-11-01T23:00:00Z,27.8620,-80.4450,1.0,4.0,77.0,99.0,'11111222,11111222,11144222' 
FIT,ioos:station:wmo:SIPF1:1,2017-11-01T23:15:00Z,27.8620,-80.4450,1.0,3.8,62.0,99.0,'11111222,11111222,11144222' 
FIT,ioos:station:wmo:SIPF1:1,2017-11-01T23:30:00Z,27.8620,-80.4450,1.0,4.2,57.0,99.0,'11111222,11111222,11144222' 
FIT,ioos:station:wmo:SIPF1:1,2017-11-01T23:45:00Z,27.8620,-80.4450,1.0,4.0,54.0,99.0,'11111222,11111222,11144222' 
FIT,ioos:station:wmo:SIPF1:1,2017-11-02T00:00:00Z,27.8620,-80.4450,1.0,5.0,49.0,99.0,'11111222,11111222,11144222' 
FIT,ioos:station:wmo:SIPF1:1,2017-11-02T00:15:00Z,27.8620,-80.4450,1.0,5.4,43.0,99.0,'11111222,11111222,11144222' 
FIT,ioos:station:wmo:SIPF1:1,2017-11-02T00:30:00Z,27.8620,-80.4450,1.0,5.0,36.0,99.0,'11111222,11111222,11144222' 
FIT,ioos:station:wmo:SIPF1:1,2017-11-02T00:45:00Z,27.8620,-80.4450,1.0,4.6,28.0,99.0,'11111222,11111222,11144222' 
FIT,ioos:station:wmo:SIPF1:1,2017-11-02T01:00:00Z,27.8620,-80.4450,1.0,4.7,69.0,99.0,'11111222,11111222,11144222' 
FIT,ioos:station:wmo:SIPF1:1,2017-11-02T01:15:00Z,27.8620,-80.4450,1.0,5.0,87.0,99.0,'11111222,11111222,11144222' 
FIT,ioos:station:wmo:SIPF1:1,2017-11-02T01:30:00Z,27.8620,-80.4450,1.0,5.4,109.0,99.0,'11111222,11111222,11144222' 
FIT,ioos:station:wmo:SIPF1:1,2017-11-02T01:45:00Z,27.8620,-80.4450,1.0,5.5,102.0,99.0,'11111222,11111222,11144222' 
FIT,ioos:station:wmo:SIPF1:1,2017-11-02T02:00:00Z,27.8620,-80.4450,1.0,5.6,101.0,99.0,'11111222,11111222,11144222' 
FIT,ioos:station:wmo:SIPF1:1,2017-11-02T02:15:00Z,27.8620,-80.4450,1.0,5.4,120.0,99.0,'11111222,11111222,11144222' 
FIT,ioos:station:wmo:SIPF1:1,2017-11-02T02:30:00Z,27.8620,-80.4450,1.0,3.0,175.0,99.0,'11111222,11111222,11144222' 
FIT,ioos:station:wmo:SIPF1:1,2017-11-02T02:45:00Z,27.8620,-80.4450,1.0,2.7,204.0,99.0,'11111222,11111222,11144222' 
FIT,ioos:station:wmo:SIPF1:1,2017-11-02T03:00:00Z,27.8620,-80.4450,1.0,2.1,230.0,99.0,'11111222,11111222,11144222' 
FIT,ioos:station:wmo:SIPF1:1,2017-11-02T03:15:00Z,27.8620,-80.4450,1.0,2.3,229.0,99.0,'11111222,11111222,11144222' 
FIT,ioos:station:wmo:SIPF1:1,2017-11-02T03:30:00Z,27.8620,-80.4450,1.0,2.5,240.0,99.0,'11111222,11111222,11144222' 
FIT,ioos:station:wmo:SIPF1:1,2017-11-02T03:45:00Z,27.8620,-80.4450,1.0,2.1,256.0,99.0,'11111222,11111222,11144222' 
FIT,ioos:station:wmo:SIPF1:1,2017-11-02T04:00:00Z,27.8620,-80.4450,1.0,2.2,262.0,99.0,'11111222,11111222,11144222' 
FIT,ioos:station:wmo:SIPF1:1,2017-11-02T04:15:00Z,27.8620,-80.4450,1.0,2.6,260.0,99.0,'11111222,11111222,11144222' 
FIT,ioos:station:wmo:SIPF1:1,2017-11-02T04:30:00Z,27.8620,-80.4450,1.0,2.5,263.0,99.0,'11111222,11111222,11144222' 
FIT,ioos:station:wmo:SIPF1:1,2017-11-02T04:45:00Z,27.8620,-80.4450,1.0,2.2,265.0,99.0,'11111222,11111222,11144222' 
FIT,ioos:station:wmo:SIPF1:1,2017-11-02T05:00:00Z,27.8620,-80.4450,1.0,2.2,256.0,99.0,'11111222,11111222,11144222' 
FIT,ioos:station:wmo:SIPF1:1,2017-11-02T05:15:00Z,27.8620,-80.4450,1.0,2.5,258.0,99.0,'11111222,11111222,11144222' 
FIT,ioos:station:wmo:SIPF1:1,2017-11-02T05:30:00Z,27.8620,-80.4450,1.0,2.2,259.0,99.0,'11111222,11111222,11144222' 
FIT,ioos:station:wmo:SIPF1:1,2017-11-02T05:45:00Z,27.8620,-80.4450,1.0,2.4,264.0,99.0,'11111222,11111222,11144222' 
FIT,ioos:station:wmo:SIPF1:1,2017-11-02T06:00:00Z,27.8620,-80.4450,1.0,2.2,266.0,99.0,'11111222,11111222,11144222' 
FIT,ioos:station:wmo:SIPF1:1,2017-11-02T06:15:00Z,27.8620,-80.4450,1.0,1.8,271.0,99.0,'11111222,11111222,11144222' 
FIT,ioos:station:wmo:SIPF1:1,2017-11-02T06:30:00Z,27.8620,-80.4450,1.0,2.0,272.0,99.0,'11111222,11111222,11144222' 
FIT,ioos:station:wmo:SIPF1:1,2017-11-02T06:45:00Z,27.8620,-80.4450,1.0,2.0,276.0,99.0,'11111222,11111222,11144222' 
FIT,ioos:station:wmo:SIPF1:1,2017-11-02T07:00:00Z,27.8620,-80.4450,1.0,3.0,281.0,99.0,'11111222,11111222,11144222' 
FIT,ioos:station:wmo:SIPF1:1,2017-11-02T07:15:00Z,27.8620,-80.4450,1.0,3.0,293.0,99.0,'11111222,11111222,11144222' 
FIT,ioos:station:wmo:SIPF1:1,2017-11-02T07:30:00Z,27.8620,-80.4450,1.0,3.4,292.0,99.0,'11111222,11111222,11144222' 
FIT,ioos:station:wmo:SIPF1:1,2017-11-02T07:45:00Z,27.8620,-80.4450,1.0,3.2,289.0,99.0,'11111222,11111222,11144222' 
FIT,ioos:station:wmo:SIPF1:1,2017-11-02T08:00:00Z,27.8620,-80.4450,1.0,3.9,296.0,99.0,'11111222,11111222,11144222' 
FIT,ioos:station:wmo:SIPF1:1,2017-11-02T08:15:00Z,27.8620,-80.4450,1.0,3.7,292.0,99.0,'11111222,11111222,11144222' 
FIT,ioos:station:wmo:SIPF1:1,2017-11-02T08:30:00Z,27.8620,-80.4450,1.0,3.2,288.0,99.0,'11111222,11111222,11144222' 
FIT,ioos:station:wmo:SIPF1:1,2017-11-02T08:45:00Z,27.8620,-80.4450,1.0,2.7,289.0,99.0,'11111222,11111222,11144222' 
FIT,ioos:station:wmo:SIPF1:1,2017-11-02T09:00:00Z,27.8620,-80.4450,1.0,3.6,298.0,99.0,'11111222,11111222,11144222' 
FIT,ioos:station:wmo:SIPF1:1,2017-11-02T09:15:00Z,27.8620,-80.4450,1.0,3.3,299.0,99.0,'11111222,11111222,11144222' 
FIT,ioos:station:wmo:SIPF1:1,2017-11-02T09:30:00Z,27.8620,-80.4450,1.0,2.7,312.0,99.0,'11111222,11111222,11144222' 
FIT,ioos:station:wmo:SIPF1:1,2017-11-02T09:45:00Z,27.8620,-80.4450,1.0,3.0,342.0,99.0,'11111222,11111222,11144222' 
FIT,ioos:station:wmo:SIPF1:1,2017-11-02T10:00:00Z,27.8620,-80.4450,1.0,3.1,334.0,99.0,'11111222,11111222,11144222' 
FIT,ioos:station:wmo:SIPF1:1,2017-11-02T10:15:00Z,27.8620,-80.4450,1.0,3.2,328.0,99.0,'11111222,11111222,11144222' 
FIT,ioos:station:wmo:SIPF1:1,2017-11-02T10:30:00Z,27.8620,-80.4450,1.0,3.3,324.0,99.0,'11111222,11111222,11144222' 
FIT,ioos:station:wmo:SIPF1:1,2017-11-02T10:45:00Z,27.8620,-80.4450,1.0,3.2,322.0,99.0,'11111222,11111222,11144222' 
FIT,ioos:station:wmo:SIPF1:1,2017-11-02T11:00:00Z,27.8620,-80.4450,1.0,2.9,325.0,99.0,'11111222,11111222,11144222' 
FIT,ioos:station:wmo:SIPF1:1,2017-11-02T11:15:00Z,27.8620,-80.4450,1.0,2.6,337.0,99.0,'11111222,11111222,11144222' 
FIT,ioos:station:wmo:SIPF1:1,2017-11-02T11:30:00Z,27.8620,-80.4450,1.0,2.5,321.0,99.0,'11111222,11111222,11144222' 
FIT,ioos:station:wmo:SIPF1:1,2017-11-02T11:45:00Z,27.8620,-80.4450,1.0,2.6,328.0,99.0,'11111222,11111222,11144222' 
FIT,ioos:station:wmo:SIPF1:1,2017-11-02T12:00:00Z,27.8620,-80.4450,1.0,3.4,4.0,99.0,'11111222,11111222,11144222' 
FIT,ioos:station:wmo:SIPF1:1,2017-11-02T12:15:00Z,27.8620,-80.4450,1.0,3.1,336.0,99.0,'11111222,11111222,11144222' 
FIT,ioos:station:wmo:SIPF1:1,2017-11-02T12:30:00Z,27.8620,-80.4450,1.0,2.5,318.0,99.0,'11111222,11111222,11144222' 
FIT,ioos:station:wmo:SIPF1:1,2017-11-02T12:45:00Z,27.8620,-80.4450,1.0,2.5,317.0,99.0,'11111222,11111222,11144222' 
FIT,ioos:station:wmo:SIPF1:1,2017-11-02T13:00:00Z,27.8620,-80.4450,1.0,2.4,319.0,99.0,'11111222,11111222,11144222' 
FIT,ioos:station:wmo:SIPF1:1,2017-11-02T13:15:00Z,27.8620,-80.4450,1.0,2.8,333.0,99.0,'11111222,11111222,11144222' 
FIT,ioos:station:wmo:SIPF1:1,2017-11-02T13:30:00Z,27.8620,-80.4450,1.0,3.0,329.0,99.0,'11111222,11111222,11144222' 
FIT,ioos:station:wmo:SIPF1:1,2017-11-02T13:45:00Z,27.8620,-80.4450,1.0,3.6,337.0,99.0,'11111222,11111222,11144222' 
FIT,ioos:station:wmo:SIPF1:1,2017-11-02T14:00:00Z,27.8620,-80.4450,1.0,3.8,338.0,99.0,'11111222,11111222,11144222' 
FIT,ioos:station:wmo:SIPF1:1,2017-11-02T14:15:00Z,27.8620,-80.4450,1.0,3.5,360.0,99.0,'11111222,11144222,11144222' 
FIT,ioos:station:wmo:SIPF1:1,2017-11-02T14:30:00Z,27.8620,-80.4450,1.0,4.4,355.0,99.0,'11111222,11111222,11144222' 
FIT,ioos:station:wmo:SIPF1:1,2017-11-02T14:45:00Z,27.8620,-80.4450,1.0,4.6,339.0,99.0,'11111222,11111222,11144222' 
FIT,ioos:station:wmo:SIPF1:1,2017-11-02T15:00:00Z,27.8620,-80.4450,1.0,4.4,344.0,99.0,'11111222,11111222,11144222' 
FIT,ioos:station:wmo:SIPF1:1,2017-11-02T15:15:00Z,27.8620,-80.4450,1.0,2.9,31.0,99.0,'11111222,11111222,11144222' 
FIT,ioos:station:wmo:SIPF1:1,2017-11-02T15:30:00Z,27.8620,-80.4450,1.0,3.2,37.0,99.0,'11111222,11111222,11144222' 
FIT,ioos:station:wmo:SIPF1:1,2017-11-02T15:45:00Z,27.8620,-80.4450,1.0,6.1,47.0,99.0,'11111222,11111222,11144222' 
FIT,ioos:station:wmo:SIPF1:1,2017-11-02T16:00:00Z,27.8620,-80.4450,1.0,6.5,45.0,99.0,'11111222,11111222,11144222' 
FIT,ioos:station:wmo:SIPF1:1,2017-11-02T16:15:00Z,27.8620,-80.4450,1.0,6.3,37.0,99.0,'11111222,11111222,11144222' 
FIT,ioos:station:wmo:SIPF1:1,2017-11-02T16:30:00Z,27.8620,-80.4450,1.0,6.5,36.0,99.0,'11111222,11111222,11144222' 
FIT,ioos:station:wmo:SIPF1:1,2017-11-02T16:45:00Z,27.8620,-80.4450,1.0,5.6,39.0,99.0,'11111222,11111222,11144222' 
FIT,ioos:station:wmo:SIPF1:1,2017-11-02T17:00:00Z,27.8620,-80.4450,1.0,5.3,41.0,99.0,'11111222,11111222,11144222' 
FIT,ioos:station:wmo:SIPF1:1,2017-11-02T17:15:00Z,27.8620,-80.4450,1.0,5.0,25.0,99.0,'11111222,11111222,11144222' 
FIT,ioos:station:wmo:SIPF1:1,2017-11-02T17:30:00Z,27.8620,-80.4450,1.0,5.4,354.0,99.0,'11111222,11111222,11144222' 
FIT,ioos:station:wmo:SIPF1:1,2017-11-02T17:45:00Z,27.8620,-80.4450,1.0,5.2,5.0,99.0,'11111222,11111222,11144222' 
FIT,ioos:station:wmo:SIPF1:1,2017-11-02T18:00:00Z,27.8620,-80.4450,1.0,5.7,45.0,99.0,'11111222,11111222,11144222' 
FIT,ioos:station:wmo:SIPF1:1,2017-11-02T18:15:00Z,27.8620,-80.4450,1.0,5.2,44.0,99.0,'11111222,11111222,11144222' 
FIT,ioos:station:wmo:SIPF1:1,2017-11-02T18:30:00Z,27.8620,-80.4450,1.0,5.1,50.0,99.0,'11111222,11111222,11144222' 
FIT,ioos:station:wmo:SIPF1:1,2017-11-02T18:45:00Z,27.8620,-80.4450,1.0,8.2,19.0,99.0,'11111222,11111222,11144222' 
FIT,ioos:station:wmo:SIPF1:1,2017-11-02T19:00:00Z,27.8620,-80.4450,1.0,9.4,20.0,99.0,'11111222,11111222,11144222' 
FIT,ioos:station:wmo:SIPF1:1,2017-11-02T19:15:00Z,27.8620,-80.4450,1.0,9.3,11.0,99.0,'11111222,11111222,11144222' 
FIT,ioos:station:wmo:SIPF1:1,2017-11-02T19:30:00Z,27.8620,-80.4450,1.0,7.7,353.0,99.0,'11111222,11111222,11144222' 
FIT,ioos:station:wmo:SIPF1:1,2017-11-02T19:45:00Z,27.8620,-80.4450,1.0,6.2,15.0,99.0,'11111222,11111222,11144222' 
FIT,ioos:station:wmo:SIPF1:1,2017-11-02T20:00:00Z,27.8620,-80.4450,1.0,6.7,26.0,99.0,'11111222,11111222,11144222' 
FIT,ioos:station:wmo:SIPF1:1,2017-11-02T20:15:00Z,27.8620,-80.4450,1.0,6.2,27.0,99.0,'11111222,11111222,11144222' 
FIT,ioos:station:wmo:SIPF1:1,2017-11-02T20:30:00Z,27.8620,-80.4450,1.0,6.3,33.0,99.0,'11111222,11111222,11144222' 
FIT,ioos:station:wmo:SIPF1:1,2017-11-02T20:45:00Z,27.8620,-80.4450,1.0,6.3,30.0,99.0,'11111222,11111222,11144222' 
FIT,ioos:station:wmo:SIPF1:1,2017-11-02T21:00:00Z,27.8620,-80.4450,1.0,6.3,33.0,99.0,'11111222,11111222,11144222' 
FIT,ioos:station:wmo:SIPF1:1,2017-11-02T21:15:00Z,27.8620,-80.4450,1.0,6.2,36.0,99.0,'11111222,11111222,11144222' 
FIT,ioos:station:wmo:SIPF1:1,2017-11-02T21:30:00Z,27.8620,-80.4450,1.0,6.3,31.0,99.0,'11111222,11111222,11144222' 
FIT,ioos:station:wmo:SIPF1:1,2017-11-02T21:45:00Z,27.8620,-80.4450,1.0,6.2,31.0,99.0,'11111222,11111222,11144222' 
FIT,ioos:station:wmo:SIPF1:1,2017-11-02T22:00:00Z,27.8620,-80.4450,1.0,6.2,35.0,99.0,'11111222,11111222,11144222' 
FIT,ioos:station:wmo:SIPF1:1,2017-11-02T22:15:00Z,27.8620,-80.4450,1.0,5.6,37.0,99.0,'11111222,11111222,11144222' 
FIT,ioos:station:wmo:SIPF1:1,2017-11-02T22:30:00Z,27.8620,-80.4450,1.0,6.0,37.0,99.0,'11111222,11111222,11144222' 
FIT,ioos:station:wmo:SIPF1:1,2017-11-02T22:45:00Z,27.8620,-80.4450,1.0,6.2,33.0,99.0,'11111222,11111222,11144222' 
FIT,ioos:station:wmo:SIPF1:1,2017-11-02T23:00:00Z,27.8620,-80.4450,1.0,5.9,38.0,99.0,'11111222,11111222,11144222' 
FIT,ioos:station:wmo:SIPF1:1,2017-11-02T23:15:00Z,27.8620,-80.4450,1.0,6.3,38.0,99.0,'11111222,11111222,11144222' 
FIT,ioos:station:wmo:SIPF1:1,2017-11-02T23:30:00Z,27.8620,-80.4450,1.0,6.5,37.0,99.0,'11111222,11111222,11144222' 
FIT,ioos:station:wmo:SIPF1:1,2017-11-02T23:45:00Z,27.8620,-80.4450,1.0,6.6,40.0,99.0,'11111222,11111222,11144222' 
FIT,ioos:station:wmo:SIPF1:1,2017-11-03T00:00:00Z,27.8620,-80.4450,1.0,6.3,38.0,99.0,'11111222,11111222,11144222' 
FIT,ioos:station:wmo:SIPF1:1,2017-11-03T00:15:00Z,27.8620,-80.4450,1.0,6.1,39.0,99.0,'11111222,11111222,11144222' 
FIT,ioos:station:wmo:SIPF1:1,2017-11-03T00:30:00Z,27.8620,-80.4450,1.0,6.4,35.0,99.0,'11111222,11111222,11144222' 
FIT,ioos:station:wmo:SIPF1:1,2017-11-03T00:45:00Z,27.8620,-80.4450,1.0,6.1,37.0,99.0,'11111222,11111222,11144222' 
FIT,ioos:station:wmo:SIPF1:1,2017-11-03T01:00:00Z,27.8620,-80.4450,1.0,6.0,44.0,99.0,'11111222,11111222,11144222' 
FIT,ioos:station:wmo:SIPF1:1,2017-11-03T01:15:00Z,27.8620,-80.4450,1.0,5.8,43.0,99.0,'11111222,11111222,11144222' 
FIT,ioos:station:wmo:SIPF1:1,2017-11-03T01:30:00Z,27.8620,-80.4450,1.0,6.2,46.0,99.0,'11111222,11111222,11144222' 
FIT,ioos:station:wmo:SIPF1:1,2017-11-03T01:45:00Z,27.8620,-80.4450,1.0,6.6,47.0,99.0,'11111222,11111222,11144222' 
FIT,ioos:station:wmo:SIPF1:1,2017-11-03T02:00:00Z,27.8620,-80.4450,1.0,6.1,44.0,99.0,'11111222,11111222,11144222' 
FIT,ioos:station:wmo:SIPF1:1,2017-11-03T02:15:00Z,27.8620,-80.4450,1.0,6.1,50.0,99.0,'11111222,11111222,11144222' 
FIT,ioos:station:wmo:SIPF1:1,2017-11-03T02:30:00Z,27.8620,-80.4450,1.0,6.5,49.0,99.0,'11111222,11111222,11144222' 
FIT,ioos:station:wmo:SIPF1:1,2017-11-03T02:45:00Z,27.8620,-80.4450,1.0,6.3,45.0,99.0,'11111222,11111222,11144222' 
FIT,ioos:station:wmo:SIPF1:1,2017-11-03T03:00:00Z,27.8620,-80.4450,1.0,6.4,44.0,99.0,'11111222,11111222,11144222' 
FIT,ioos:station:wmo:SIPF1:1,2017-11-03T03:15:00Z,27.8620,-80.4450,1.0,6.0,48.0,99.0,'11111222,11111222,11144222' 